TimeEDT,TemperatureF,Dew PointF,Humidity,Sea Level PressureIn,VisibilityMPH,Wind Direction,Wind SpeedMPH,Gust SpeedMPH,PrecipitationIn,Events,Conditions,WindDirDegrees,DateUTC
12:53 AM,80.1,75.9,87,29.97,10.0,Calm,Calm,-,N/A,,Mostly Cloudy,0,2012-10-09 04:53:00
1:53 AM,79.0,75.9,90,29.96,10.0,Calm,Calm,-,N/A,,Scattered Clouds,0,2012-10-09 05:53:00
2:53 AM,78.1,75.9,93,29.95,10.0,NW,3.5,-,N/A,,Scattered Clouds,310,2012-10-09 06:53:00
3:53 AM,77.0,75.0,94,29.95,10.0,Calm,Calm,-,N/A,,Scattered Clouds,0,2012-10-09 07:53:00
4:53 AM,77.0,75.9,96,29.95,10.0,Calm,Calm,-,N/A,,Partly Cloudy,0,2012-10-09 08:53:00
5:53 AM,77.0,75.0,94,29.96,10.0,NNW,5.8,-,N/A,,Partly Cloudy,330,2012-10-09 09:53:00
6:53 AM,75.9,75.0,97,29.97,10.0,NW,4.6,-,N/A,,Scattered Clouds,320,2012-10-09 10:53:00
7:53 AM,77.0,73.9,90,29.98,10.0,NNW,3.5,-,N/A,,Scattered Clouds,330,2012-10-09 11:53:00
8:53 AM,81.0,73.9,79,29.99,10.0,North,5.8,-,N/A,,Scattered Clouds,350,2012-10-09 12:53:00
9:53 AM,84.0,73.9,72,30.00,10.0,North,4.6,-,N/A,,Scattered Clouds,360,2012-10-09 13:53:00
10:53 AM,87.1,73.0,63,30.01,10.0,Variable,5.8,-,N/A,,Scattered Clouds,0,2012-10-09 14:53:00
11:17 AM,87.8,73.4,62,30.01,10.0,NE,4.6,-,N/A,,Mostly Cloudy,50,2012-10-09 15:17:00
11:53 AM,84.9,72.0,65,30.01,10.0,NE,8.1,-,N/A,,Mostly Cloudy,50,2012-10-09 15:53:00
12:40 PM,87.8,73.4,62,30.00,10.0,ENE,9.2,-,N/A,,Scattered Clouds,70,2012-10-09 16:40:00
12:53 PM,88.0,73.0,61,30.00,10.0,ENE,9.2,-,N/A,,Scattered Clouds,60,2012-10-09 16:53:00
1:53 PM,88.0,71.1,57,29.98,10.0,NNE,10.4,-,N/A,,Scattered Clouds,30,2012-10-09 17:53:00
2:53 PM,88.0,71.1,57,29.97,10.0,ENE,10.4,-,N/A,,Scattered Clouds,60,2012-10-09 18:53:00
3:53 PM,88.0,72.0,59,29.96,10.0,NE,10.4,25.3,N/A,,Scattered Clouds,50,2012-10-09 19:53:00
4:53 PM,87.1,72.0,61,29.96,10.0,NE,9.2,-,N/A,,Scattered Clouds,40,2012-10-09 20:53:00
5:53 PM,84.9,73.9,69,29.96,10.0,NE,10.4,-,N/A,,Scattered Clouds,50,2012-10-09 21:53:00
6:53 PM,84.0,73.9,72,29.96,10.0,NE,9.2,-,N/A,,Scattered Clouds,50,2012-10-09 22:53:00
7:53 PM,82.9,73.9,74,29.98,10.0,North,10.4,-,N/A,,Scattered Clouds,10,2012-10-09 23:53:00
8:53 PM,82.9,73.9,74,30.00,10.0,NNE,8.1,-,N/A,,Scattered Clouds,20,2012-10-10 00:53:00
9:53 PM,82.0,75.0,79,30.02,10.0,North,3.5,-,N/A,,Mostly Cloudy,350,2012-10-10 01:53:00
10:53 PM,82.0,73.9,76,30.02,10.0,North,3.5,-,N/A,,Scattered Clouds,360,2012-10-10 02:53:00
11:53 PM,82.0,73.9,76,30.02,10.0,NNE,5.8,-,N/A,,Scattered Clouds,30,2012-10-10 03:53:00